Location: Arlington
(40.6323°N, 74.1651°W)
Time: 13:51:43
(UTC+00:00)

ATLAS 3B R/B - Pass Details

Date: 22 November 2019
Orbit: 1030 x 1165 km, 63.8° (Epoch: 03 December)

Event Time Altitude Azimuth Distance (km) Brightness Sun altitude
Rises 22:39:55 0° 329° (NNW) 3,789 5.8 -12.5°
Reaches altitude 10° 22:44:18 10° 356° (N) 2,843 4.8 -13.3°
Maximum altitude 22:47:21 13° 24° (NNE) 2,612 4.4 -13.8°
Enters shadow 22:49:08 12° 40° (NE) 2,701 4.3 -14.2°
